User: anonymous
Location: Brno
(49.2000°N, 16.6330°E)
Time: 00:30:38
(UTC+02:00)
Language:

RESURS DK-1 - Orbit

View from above orbital plane
View from above orbital plane
View from above satellite
View from above satellite

Ground track
Ground track

The orbit data is extracted from the following two-line orbital elements,

1 29228U 06021A   14213.58235106  .00000261  00000-0  28141-4 0   937
2 29228 069.9360 248.9107 0004330 190.2117 253.2676 15.00735708450387
Epoch (UTC): 01 August 2014 13:58:35
Eccentricity: 0.0004330
inclination: 69.9360°
perigee height: 561 km
apogee height: 567 km
right ascension of ascending node: 248.9107°
argument of perigee: 190.2117°
revolutions per day: 15.00735708
mean anomaly at epoch: 253.2676°
orbit number at epoch: 45038

The dashed part of the orbit path shows where the satellite is in the earth's shadow,  

DLR